• In Germany
  • List of Countries
  • For 7 days
  • Water Temperature
  • Satellite Maps
  • Weather Map
  • Weather Widgets
  • user-avatar
    Login

    Hourly Weather Koszalin

    Today, 19 June, Tuesday

    Time Temperature Precipitation Wind Pressure Humidity
    00:00 +16°C° 0 mm 3 mps 760 mmHg 85%
    01:00 +14°C° 0 mm 4 mps 760 mmHg 87%
    02:00 +14°C° 0 mm 4 mps 760 mmHg 86%
    03:00 +14°C° 0 mm 5 mps 759 mmHg 86%
    04:00 +15°C° 0 mm 5 mps 759 mmHg 86%
    05:00 +16°C° 0.1 mm 5 mps 759 mmHg 84%
    06:00 +17°C° 0.1 mm 6 mps 759 mmHg 81%
    07:00 +20°C° 0 mm 6 mps 760 mmHg 77%
    08:00 +20°C° 0.1 mm 6 mps 760 mmHg 72%
    09:00 +20°C° 0.1 mm 7 mps 760 mmHg 68%
    10:00 +21°C° 0.1 mm 7 mps 760 mmHg 63%
    11:00 +21°C° 0 mm 7 mps 760 mmHg 61%
    12:00 +22°C° 0 mm 7 mps 760 mmHg 59%
    13:00 +23°C° 0 mm 7 mps 760 mmHg 56%
    14:00 +23°C° 0.1 mm 7 mps 760 mmHg 59%
    15:00 +23°C° 0.1 mm 7 mps 760 mmHg 62%
    16:00 +23°C° 0.1 mm 6 mps 761 mmHg 64%
    17:00 +22°C° 0.1 mm 6 mps 761 mmHg 68%
    18:00 +21°C° 0.1 mm 6 mps 761 mmHg 72%
    19:00 +20°C° 0.1 mm 5 mps 761 mmHg 76%
    20:00 +17°C° 0 mm 5 mps 761 mmHg 81%
    21:00 +17°C° 0 mm 4 mps 762 mmHg 86%
    22:00 +14°C° 0 mm 4 mps 762 mmHg 91%
    23:00 +14°C° 0 mm 4 mps 762 mmHg 90%

    Tomorrow, 20 June, Wednesday

    Time Temperature Precipitation Wind Pressure Humidity
    00:00 +13°C° 0 mm 4 mps 763 mmHg 90%
    01:00 +12°C° 0 mm 4 mps 763 mmHg 90%
    02:00 +12°C° 0 mm 4 mps 763 mmHg 90%
    03:00 +12°C° 0 mm 4 mps 763 mmHg 90%
    04:00 +11°C° 0 mm 4 mps 763 mmHg 90%
    05:00 +13°C° 0 mm 4 mps 763 mmHg 82%
    06:00 +15°C° 0 mm 4 mps 763 mmHg 74%
    07:00 +17°C° 0 mm 4 mps 763 mmHg 66%
    08:00 +19°C° 0 mm 4 mps 763 mmHg 59%
    09:00 +20°C° 0 mm 4 mps 763 mmHg 53%
    10:00 +21°C° 0 mm 5 mps 763 mmHg 46%
    11:00 +22°C° 0 mm 5 mps 763 mmHg 44%
    12:00 +23°C° 0 mm 5 mps 763 mmHg 43%
    13:00 +25°C° 0 mm 5 mps 762 mmHg 41%
    14:00 +26°C° 0 mm 5 mps 762 mmHg 43%
    15:00 +26°C° 0 mm 5 mps 761 mmHg 45%
    16:00 +27°C° 0 mm 4 mps 761 mmHg 47%
    17:00 +26°C° 0 mm 4 mps 761 mmHg 53%
    18:00 +25°C° 0 mm 4 mps 760 mmHg 59%
    19:00 +23°C° 0 mm 4 mps 760 mmHg 65%
    20:00 +22°C° 0 mm 4 mps 759 mmHg 71%
    21:00 +20°C° 0 mm 4 mps 759 mmHg 77%
    22:00 +19°C° 0 mm 4 mps 759 mmHg 83%
    23:00 +19°C° 0.1 mm 4 mps 759 mmHg 83%

    Day after tomorrow, 21 June, Thursday

    Time Temperature Precipitation Wind Pressure Humidity
    00:00 +19°C° 0.1 mm 4 mps 758 mmHg 83%
    01:00 +19°C° 0.1 mm 4 mps 758 mmHg 83%
    02:00 +18°C° 0.2 mm 4 mps 757 mmHg 86%
    03:00 +18°C° 0.2 mm 4 mps 757 mmHg 88%
    04:00 +18°C° 0.2 mm 4 mps 756 mmHg 91%
    05:00 +19°C° 0.3 mm 4 mps 756 mmHg 89%
    06:00 +20°C° 0.3 mm 4 mps 755 mmHg 87%
    07:00 +22°C° 0.3 mm 4 mps 755 mmHg 85%
    08:00 +22°C° 0.6 mm 5 mps 754 mmHg 80%
    09:00 +23°C° 0.6 mm 5 mps 754 mmHg 76%
    10:00 +24°C° 0.6 mm 6 mps 753 mmHg 71%
    11:00 +24°C° 0.3 mm 6 mps 752 mmHg 69%
    12:00 +24°C° 0.3 mm 6 mps 752 mmHg 67%
    13:00 +24°C° 0.3 mm 6 mps 751 mmHg 65%
    14:00 +21°C° 1.6 mm 6 mps 751 mmHg 73%
    15:00 +16°C° 1.6 mm 6 mps 751 mmHg 82%
    16:00 +13°C° 1.6 mm 6 mps 751 mmHg 91%
    17:00 +12°C° 0.6 mm 7 mps 751 mmHg 90%
    18:00 +12°C° 0.6 mm 8 mps 751 mmHg 88%
    19:00 +12°C° 0.6 mm 9 mps 751 mmHg 87%
    20:00 +11°C° 0.2 mm 9 mps 751 mmHg 86%
    21:00 +10°C° 0.2 mm 9 mps 752 mmHg 85%
    22:00 +8°C° 0.2 mm 9 mps 752 mmHg 84%
    23:00 +8°C° 0.2 mm 9 mps 752 mmHg 85%

    22 June, Friday

    Time Temperature Precipitation Wind Pressure Humidity
    00:00 +8°C° 0.2 mm 9 mps 752 mmHg 85%
    01:00 +8°C° 0.2 mm 9 mps 752 mmHg 85%
    02:00 +8°C° 0.2 mm 9 mps 752 mmHg 85%
    03:00 +7°C° 0.2 mm 9 mps 752 mmHg 85%
    04:00 +7°C° 0.2 mm 9 mps 753 mmHg 84%
    05:00 +8°C° 0.4 mm 9 mps 752 mmHg 82%
    06:00 +8°C° 0.4 mm 9 mps 752 mmHg 80%
    07:00 +10°C° 0.4 mm 9 mps 752 mmHg 77%
    08:00 +10°C° 0.6 mm 9 mps 752 mmHg 76%
    09:00 +11°C° 0.6 mm 9 mps 752 mmHg 75%
    10:00 +11°C° 0.6 mm 8 mps 752 mmHg 74%
    11:00 +12°C° 0.5 mm 8 mps 753 mmHg 75%
    12:00 +12°C° 0.5 mm 7 mps 753 mmHg 76%
    13:00 +14°C° 0.5 mm 7 mps 753 mmHg 77%
    14:00 +14°C° 0.5 mm 7 mps 753 mmHg 72%
    15:00 +15°C° 0.5 mm 8 mps 754 mmHg 68%
    16:00 +16°C° 0.5 mm 9 mps 754 mmHg 63%
    17:00 +16°C° 0 mm 8 mps 754 mmHg 62%
    18:00 +15°C° 0 mm 8 mps 754 mmHg 61%
    19:00 +15°C° 0 mm 7 mps 754 mmHg 60%
    20:00 +14°C° 0.2 mm 7 mps 755 mmHg 68%
    21:00 +11°C° 0.2 mm 6 mps 755 mmHg 76%
    22:00 +10°C° 0.2 mm 5 mps 755 mmHg 84%
    23:00 +10°C° 0.7 mm 5 mps 755 mmHg 87%

    23 June, Saturday

    Time Temperature Precipitation Wind Pressure Humidity
    00:00 +10°C° 0.7 mm 5 mps 755 mmHg 89%
    01:00 +11°C° 0.7 mm 4 mps 755 mmHg 92%
    02:00 +11°C° 0.3 mm 4 mps 755 mmHg 92%
    03:00 +11°C° 0.3 mm 4 mps 756 mmHg 92%
    04:00 +11°C° 0.3 mm 4 mps 756 mmHg 92%
    05:00 +12°C° 0 mm 5 mps 756 mmHg 85%
    06:00 +14°C° 0 mm 5 mps 756 mmHg 78%
    07:00 +15°C° 0 mm 5 mps 757 mmHg 71%
    08:00 +16°C° 0.1 mm 6 mps 757 mmHg 66%
    09:00 +17°C° 0.1 mm 6 mps 757 mmHg 60%
    10:00 +19°C° 0.1 mm 6 mps 757 mmHg 54%
    11:00 +18°C° 0 mm 7 mps 757 mmHg 50%
    12:00 +20°C° 0 mm 7 mps 757 mmHg 46%
    13:00 +20°C° 0 mm 7 mps 758 mmHg 42%
    14:00 +20°C° 0 mm 7 mps 758 mmHg 43%
    15:00 +20°C° 0 mm 7 mps 758 mmHg 45%
    16:00 +20°C° 0 mm 7 mps 758 mmHg 46%
    17:00 +19°C° 0 mm 6 mps 758 mmHg 52%
    18:00 +17°C° 0 mm 6 mps 758 mmHg 59%
    19:00 +16°C° 0 mm 5 mps 758 mmHg 65%
    20:00 +15°C° 0 mm 5 mps 758 mmHg 72%
    21:00 +14°C° 0 mm 5 mps 758 mmHg 79%
    22:00 +12°C° 0 mm 5 mps 758 mmHg 87%
    23:00 +12°C° 0.1 mm 5 mps 758 mmHg 88%

    24 June, Sunday

    Time Temperature Precipitation Wind Pressure Humidity
    00:00 +12°C° 0.1 mm 5 mps 758 mmHg 89%
    01:00 +12°C° 0.1 mm 5 mps 758 mmHg 90%
    02:00 +10°C° 0.3 mm 5 mps 758 mmHg 91%
    03:00 +10°C° 0.3 mm 5 mps 758 mmHg 92%
    04:00 +10°C° 0.3 mm 5 mps 758 mmHg 92%
    05:00 +12°C° 0.4 mm 5 mps 759 mmHg 90%
    06:00 +13°C° 0.4 mm 5 mps 759 mmHg 88%
    07:00 +14°C° 0.4 mm 5 mps 759 mmHg 85%
    08:00 +14°C° 0.4 mm 5 mps 759 mmHg 84%
    09:00 +15°C° 0.4 mm 5 mps 759 mmHg 82%
    10:00 +16°C° 0.4 mm 5 mps 760 mmHg 81%
    11:00 +16°C° 0.4 mm 5 mps 760 mmHg 79%
    12:00 +17°C° 0.4 mm 5 mps 760 mmHg 77%
    13:00 +17°C° 0.4 mm 5 mps 760 mmHg 75%
    14:00 +17°C° 0.2 mm 6 mps 760 mmHg 73%
    15:00 +19°C° 0.2 mm 6 mps 760 mmHg 71%
    16:00 +19°C° 0.2 mm 6 mps 760 mmHg 69%
    17:00 +17°C° 0 mm 5 mps 760 mmHg 72%
    18:00 +17°C° 0 mm 5 mps 760 mmHg 74%
    19:00 +16°C° 0 mm 5 mps 760 mmHg 76%
    20:00 +15°C° 0 mm 4 mps 760 mmHg 82%
    21:00 +14°C° 0 mm 4 mps 761 mmHg 88%
    22:00 +12°C° 0 mm 3 mps 761 mmHg 94%
    23:00 +12°C° 0.1 mm 3 mps 761 mmHg 95%
    Show more